Regional Weather Roundup
Issued by NWS New Orleans/Baton Rouge, LA

Home | Current Version | Previous Version | Text Only | Print | Product List | Glossary On
Versions: 1 2 3 4 5 6 7 8 9 10 11 12 13 14 15 16 17 18 19 20 21 22 23 24 25 26 27 28 29 30 31 32 33 34 35 36 37 38 39 40 41 42 43 44 45 46 47 48 49 50
700
ASUS44 KLIX 231713
RWRLIX
NEW ORLEANS REGIONAL WEATHER ROUNDUP
NATIONAL WEATHER SERVICE NEW ORLEANS LA
1100 AM CST MON JAN 23 2017

NOTE: "FAIR" INDICATES FEW OR NO CLOUDS BELOW 12,000 FEET WITH NO
      SIGNIFICANT WEATHER AND/OR OBSTRUCTIONS TO VISIBILITY.
      SKY/WX - SKY CONDITION AND SIGNIFICANT WEATHER.
      TMP - AIR TEMPERATURE.     DP    - DEWPOINT TEMPERATURE.
      RH  - RELATIVE HUMIDITY.   PRES  - PRESSURE.
      HI  - HEAT INDEX.          WCI   - WIND CHILL INDEX.

*  THESE STATIONS ARE NOT NWS OR FAA STATIONS AND ARE NOT UNDER
   NWS QUALITY CONTROL.

LAZ038-040-048-061>063-065>067-069-231800-
SOUTHEAST LOUISIANA

CITY           SKY/WX    TMP DP  RH WIND       PRES   REMARKS
N.O. AUDUBON   NOT AVBL
N.O. INTL ARPT MOSUNNY   60  44  55 W13       29.86S
N.O. LAKEFRONT SUNNY     59  48  67 NW23      29.86S
N.O. DOWNTOWN*   N/A     59  44  57 NW12G17   29.87S
RESERVE*         N/A     61  44  52 W15G22    29.88S
SLIDELL        SUNNY     60  47  61 NW9       29.83S
BATON ROUGE    SUNNY     59  42  53 W15       29.90S
BOOTHVILLE     SUNNY     59  47  64 NW16G24   29.85S
BELLE CHASSE   SUNNY     60  45  57 NW10G20   29.85S
BOGALUSA*        N/A     61  47  60 W12G18    29.86R
GALLIANO*      SUNNY     61  41  47 W15       29.88R
NEW ROADS*       N/A     57  42  57 NW8       29.92R
GONZALES*        N/A     58  41  53 NW10G21   29.89R
HAMMOND*       SUNNY     61  43  51 NW12      29.86F
HOUMA*         SUNNY     61  45  55 NW14G21   29.89R
PORT FOURCHON* SUNNY     59  45  58 NW16G23   29.88S

$$

MSZ070-080>082-231800-
SOUTHERN MISSISSIPPI

CITY           SKY/WX    TMP DP  RH WIND       PRES   REMARKS
MCCOMB         SUNNY     57  43  59 NW9       29.86S
GULFPORT       SUNNY     64  49  57 NW13G22   29.79R
BILOXI         SUNNY     64  50  59 NW14      29.79R
PASCAGOULA     SUNNY     66  46  48 W10G18    29.77R
STENNIS ARPT*  SUNNY     63  43  48 NW12      29.82S

$$

COASTAL OBSERVATIONS
LAKE AND NEARSHORE STATIONS

STATION/POSITION TIME  TEMP    WIND        PRES    WAVE
                       AIR SEA DIR/SP/G            HT/PER
                 (UTC) (F)     (DEG/KT/KT) (MB)    (FT/S)
PASCAGOULA       1648   64     310/ 12/ 17 1007.8
WAVELAND YACHT   1648   60 62  300/  9/ 17 1009.5
GRAND ISLE       1648   58 63  300/ 15/ 18 1011.2
SOUTHWEST PASS   1648          310/ 19/ 26   N/A
NEW CANAL        1648      60  280/  6/ 13 1010.4
SHELL BEACH      1648      63  290/ 21/ 23 1010.5

OFFSHORE STATIONS

STATION/POSITION TIME  TEMP    WIND        PRES    WAVE
                       AIR SEA DIR/SP/G            HT/PER
                 (UTC) (F)     (DEG/KT/KT) (MB)    (FT/S)

$$





USA.gov is the U.S. government's official web portal to all federal, state and local government web resources and services.